Location: Azul
(36.7830°S, 59.8500°W)
Time: 16:10:53
(UTC-03:00)

ISS - Pass Details

Date: 01 March 2021
Orbit: 417 x 422 km, 51.6° (Epoch: 26 February)

Event Time Altitude Azimuth Distance (km) Brightness Sun altitude
Rises 20:18:57 0° 218° (SW) 2,406 1.1 -8.9°
Reaches altitude 10° 20:21:52 10° 191° (SSW) 1,535 -0.5 -9.5°
Maximum altitude 20:23:49 14° 157° (SSE) 1,299 -1.3 -9.8°
Drops below altitude 10° 20:25:45 10° 123° (ESE) 1,528 -1.3 -10.2°
Enters shadow 20:26:16 - 116° (ESE) 1,652 -1.2 -10.3°
